Location: Songkhla
(7.2000°N, 100.6000°E)
Time: 14:11:10
(UTC+07:00)

First-Move - Pass Details

Date: 05 August 2021
Orbit: 576 x 665 km, 97.6° (Epoch: 23 September)

Event Time Altitude Azimuth Distance (km) Brightness Sun altitude
Rises 04:36:33 0° 13° (NNE) 2,977 ? -23.0°
Reaches altitude 10° 04:38:46 10° 15° (NNE) 2,072 ? -22.5°
Maximum altitude 04:43:18 78° 102° (ESE) 681 ? -21.5°
Enters shadow 04:46:07 23° 185° (S) 1,393 ? -20.8°
